COSMOS 2251 DEB, 34433

Orbit data source: Space-Track

COSMOS 2251 DEB, 34433 is space debris in LEO originally from a launch on Wed, 16 Jun 1993 UTC launched from the Plesetsk Missile And Space Complex (PKMTR). The debris from Iridium 33, an American commercial communications satellite, has been tracked extensively since its accidental collision with the defunct Russian satellite Cosmos 2251 in 2009. This event, occurring at high speed in low Earth orbit (LEO), generated thousands of pieces of space debris, significantly increasing the risk of further collisions. The Iridium 33 debris cloud has impacted space traffic management and orbital debris mitigation strategies, making it a subject of ongoing study in space situational awareness.

Loading next visibility...
Identifier
34433, 1993-036SA
Orbit
LEO
Country
Flag of CISCIS
Related business
Manufacturer
Unknown
Mission
Spacecraft
Bus & Motor
Unknown
Mass
Unknown
Launch date (UTC)
1993-06-16 (33 years ago)
Launch vehicle
Unknown
Launch site
Plesetsk Missile And Space Complex (PKMTR)
Object type
Payload
Rocket body
Debris
Shape & HBR
Unknown shape, 0.1 m
Radar Cross Section
Small (<0.1 m²)

Expand to show TLE details & history
Last TLE update: 19 hours ago

TLE from 19 hours ago
0 COSMOS 2251 DEB
1 34433U 93036SA  26119.86959569  .00002070  00000-0  99520-3 0  9991
2 34433  74.0088 270.0887 0151018  16.8775 343.7309 14.13649211879014
Epoch: 2026-04-29T20:52Z
TLE epoch observation values (Epoch: 2026-04-29T20:52:13.067Z)
Latitude
-0.00011°
Longitude
99.20986°
Altitude
744.867 km
Speed
7.536 km/s
True Right ascension
18h 00m 21s
True Declination
0° 00' 00"
Sunlit
Object was in full shadow at epoch
Visualization orbit readout
Latitude
Unknown
Longitude
Unknown
Altitude
Unknown
Speed
Unknown
Apparent Right ascension
Unknown
Apparent Declination
Unknown
Sunlit
N/A
Visualization observer readout
Local Sidereal Time
22:56:46
Azimuth
Unknown
Elevation
Unknown
Doppler factor
Unknown
Orbital elements
Apogee altitude
953.637 km
Perigee altitude
735.486 km
Semi-major axis
7,222.698 km
Eccentricity
0.0151
Inclination
74.0088°
RAAN
270.0887°
Arg. of periapsis
16.8775°
True anomaly
343.23716°
Mean anomaly
343.7309°
Eccentric anomaly
343.48493°
Mean motion
3.53585 °/min
Orbital period
101.81 mins
BSTAR
0.0009952
Loading maneuver chart data...
Computing Atmospheric mass density...

Documentation

Showing up to 5 results
|